[[{"header":{"parameterUnit":"m.s-1","parameterCategory":1,"la1":30.2991,"la2":30.254,"lo1":-89.0895,"lo2":-89.0444,"dy":0.0017,"dx":0.0017,"nx":28,"ny":28,"refTime":"2025-06-10T03:00:00:Z","depth":0,"parameterNumber":2,"parameterNumberName":"U-component_of_WINDS"},"data":[0,0,0,0,0,0,0,0,0,0,0,0,0,0,0,0,0,0,0,0,0,0,0,0,0,0,0,0,0,0,0,0,0,0,0,0,0,0,0,0,0,0,0,0,0,0,0,0,0,0,0,0,0,0,0,0,0,0,-1.352,-1.352,0,-1.3547,-1.3548,-1.3548,-1.3528,-1.3528,-1.3527,-1.3526,-1.3556,-1.3558,-1.356,0,0,0,0,0,0,0,0,0,0,0,0,0,-1.3455,-1.3456,-1.352,-1.3521,-1.3521,-1.3547,-1.3548,-1.3548,-1.3529,-1.3527,-1.3526,-1.3525,-1.3556,-1.3558,-1.356,0,0,0,0,0,0,0,0,0,0,0,0,0,-1.3483,-1.3456,-1.352,-1.3514,-1.3514,-1.3547,-1.3548,-1.3548,-1.3529,-1.3527,-1.3526,-1.3525,-1.3555,-1.3558,-1.356,-1.3601,0,0,-1.3567,-1.3569,0,0,0,0,0,0,0,0,-1.3481,-1.3485,-1.3515,-1.3515,-1.3514,-1.3533,-1.3536,-1.3566,-1.3529,-1.3523,-1.3526,-1.3524,-1.355,-1.3553,-1.3561,-1.3603,-1.3604,-1.3568,-1.3569,-1.357,-1.3571,0,0,0,0,0,0,0,-1.3479,-1.3484,-1.3531,-1.3515,-1.3515,-1.3511,-1.3514,-1.3541,-1.3544,-1.3524,-1.3522,-1.3526,-1.355,-1.3558,-1.3561,-1.3604,-1.3568,-1.357,-1.3571,-1.3572,-1.3682,-1.3683,0,0,0,0,0,0,-1.3477,-1.3482,-1.353,-1.3532,-1.3494,-1.3513,-1.3516,-1.3528,-1.3543,-1.3544,-1.3527,-1.3525,-1.3555,-1.3558,-1.3562,-1.3612,-1.357,-1.3573,-1.3574,-1.3681,-1.3682,-1.3684,0,0,0,0,0,0,-1.3476,-1.3482,-1.3529,-1.3507,-1.3512,-1.3516,-1.353,-1.353,-1.3538,-1.3546,-1.3546,-1.3535,-1.3554,-1.3559,-1.3592,-1.3613,-1.3574,-1.3576,-1.3679,-1.3681,-1.3683,-1.3711,0,0,0,0,0,0,-1.3474,-1.3481,-1.3496,-1.3507,-1.3514,-1.3557,-1.3531,-1.3531,-1.3542,-1.354,-1.3554,-1.3555,-1.3553,-1.3588,-1.3594,-1.3615,-1.3578,-1.3677,-1.368,-1.3683,-1.3708,-1.3714,-1.3719,0,0,0,0,0,-1.3472,-1.3504,-1.3497,-1.3503,-1.3532,-1.3558,-1.3562,-1.3559,-1.3544,-1.356,-1.3564,-1.3554,-1.3609,-1.3592,-1.3598,-1.362,-1.3676,-1.3679,-1.3682,-1.3706,-1.3713,-1.3719,0,0,0,0,0,0,-1.3497,-1.3505,-1.3498,-1.3534,-1.3545,-1.3555,-1.3575,-1.3567,-1.3583,-1.358,-1.3577,-1.358,-1.3614,-1.3621,-1.3601,-1.3661,-1.364,-1.3645,-1.3656,-1.3663,-1.3668,-1.3666,-1.358,0,0,0,0,0,-1.3506,-1.3525,-1.3532,-1.3564,-1.3569,-1.3571,-1.3582,-1.3579,-1.3591,-1.3596,-1.3603,-1.3616,-1.3636,-1.365,-1.3669,-1.3709,-1.3712,-1.3728,-1.3733,-1.3737,-1.3741,-1.3763,-1.3771,-1.3695,-1.3695,-1.3695,0,0,-1.3526,-1.3533,-1.3546,-1.3569,-1.3577,-1.3598,-1.3575,-1.3599,-1.3615,-1.36,-1.3631,-1.3637,-1.3651,-1.3688,-1.3704,-1.3694,-1.3763,-1.3741,-1.3744,-1.3747,-1.3768,-1.3775,-1.3781,-1.3697,-1.3697,-1.3696,0,0,-1.3574,-1.3581,-1.3607,-1.3616,-1.3629,-1.363,-1.3636,-1.3647,-1.365,-1.3681,-1.367,-1.369,-1.3724,-1.3735,-1.3745,-1.3796,-1.3788,-1.3803,-1.383,-1.3852,-1.3858,-1.3863,-1.3882,-1.3888,-1.3807,-1.3807,-1.3807,0,-1.3597,-1.3628,-1.3623,-1.3647,-1.3657,-1.3644,-1.3672,-1.3681,-1.3699,-1.3707,-1.3695,-1.3739,-1.3747,-1.3787,-1.3799,-1.3807,-1.3815,-1.3801,-1.3857,-1.3862,-1.3867,-1.3885,-1.3892,-1.3809,-1.3808,-1.3808,-1.3808,0,-1.3657,-1.3678,-1.3698,-1.3715,-1.3728,-1.3754,-1.3754,-1.3768,-1.3763,-1.3766,-1.3798,-1.3807,-1.3828,-1.3837,-1.3833,-1.3876,-1.3869,-1.3857,-1.3836,-1.3876,-1.3893,-1.39,-1.3811,-1.3811,-1.381,-1.381,0,0,-1.3721,-1.3734,-1.3742,-1.375,-1.3763,-1.378,-1.3805,-1.3824,-1.3837,-1.385,-1.3872,-1.3901,-1.389,-1.3902,-1.3899,-1.3918,-1.3958,-1.3904,-1.3904,-1.3914,-1.4006,-1.4016,-1.4024,-1.3953,-1.3954,-1.3955,-1.4005,0,-1.3769,-1.3812,-1.3808,-1.385,-1.387,-1.3857,-1.388,-1.3891,-1.3893,-1.3912,-1.3915,-1.3936,-1.392,-1.3927,-1.3945,-1.395,-1.3977,-1.3946,-1.3974,-1.3975,-1.3971,-1.4032,-1.4042,-1.4089,-1.4012,-1.4013,-1.4014,0,-1.3832,-1.3846,-1.3889,-1.3899,-1.3907,-1.3927,-1.3945,-1.3962,-1.3974,-1.3975,-1.3987,-1.3981,-1.4008,-1.3986,-1.4023,-1.4002,-1.4013,-1.4017,-1.4019,-1.4022,-1.3997,-1.4037,-1.4104,-1.4111,-1.4024,-1.4023,-1.4022,0,-1.3875,-1.3905,-1.3935,-1.3942,-1.3954,-1.3968,-1.3974,-1.3985,-1.3997,-1.4012,-1.402,-1.4039,-1.405,-1.4065,-1.4064,-1.4048,-1.4102,-1.408,-1.4104,-1.4104,-1.4116,-1.4116,-1.4187,-1.4123,-1.4123,-1.4123,-1.4123,0,-1.393,-1.3957,-1.3954,-1.3973,-1.4003,-1.3998,-1.4028,-1.4033,-1.4042,-1.4062,-1.4053,-1.4072,-1.407,-1.4089,-1.4089,-1.412,-1.4125,-1.4127,-1.4127,-1.4128,-1.4128,-1.4135,-1.4132,-1.4125,-1.4124,-1.4124,-1.4124,0,-1.3983,-1.3983,-1.4014,-1.4022,-1.4025,-1.4047,-1.4055,-1.4073,-1.4074,-1.4099,-1.4105,-1.4108,-1.4131,-1.4131,-1.4157,-1.4157,-1.4195,-1.4191,-1.4191,-1.419,-1.4215,-1.4212,-1.4293,-1.4304,-1.4233,-1.4234,-1.4234,0,-1.4019,-1.4039,-1.4049,-1.4061,-1.4067,-1.4087,-1.4099,-1.4095,-1.4108,-1.4123,-1.4139,-1.416,-1.4177,-1.4213,-1.4219,-1.4238,-1.4235,-1.4262,-1.4238,-1.4239,-1.4236,-1.4235,-1.4237,-1.4267,-1.4268,-1.4268,-1.4269,0,-1.4082,-1.408,-1.4097,-1.4113,-1.4127,-1.4141,-1.4153,-1.4163,-1.4161,-1.4176,-1.4198,-1.4211,-1.4237,-1.4258,-1.4277,-1.4284,-1.4277,-1.4276,-1.4283,-1.4285,-1.4284,-1.4285,-1.4204,-1.4274,-1.4274,-1.4274,-1.4273,-1.4273,-1.4128,-1.4145,-1.4155,-1.4174,-1.4182,-1.4194,-1.4211,-1.4214,-1.4232,-1.4252,-1.4249,-1.4274,-1.4286,-1.431,-1.4319,-1.4339,-1.433,-1.4339,-1.4342,-1.4345,-1.4347,-1.428,-1.4342,-1.4342,-1.4342,-1.4342,-1.4342,0,-1.419,-1.4196,-1.4213,-1.423,-1.4245,-1.4235,-1.4248,-1.4261,-1.4283,-1.4294,-1.431,-1.4336,-1.4356,-1.4363,-1.4383,-1.4398,-1.4395,-1.4403,-1.4402,-1.4404,-1.4354,-1.4346,-1.4405,-1.4405,-1.4405,-1.4405,-1.4405,-1.4405,-1.4225,-1.4254,-1.4253,-1.4287,-1.4292,-1.4315,-1.4324,-1.4334,-1.4343,-1.4372,-1.4388,-1.4392,-1.4402,-1.4422,-1.4441,-1.4442,-1.445,-1.4461,-1.4461,-1.4414,-1.4408,-1.4402,-1.4394,-1.4462,-1.4462,-1.4509,-1.4509,-1.451]},{"header":{"parameterUnit":"m.s-1","parameterCategory":1,"la1":30.2991,"la2":30.254,"lo1":-89.0895,"lo2":-89.0444,"dy":0.0017,"dx":0.0017,"nx":28,"ny":28,"refTime":"2025-06-10T03:00:00:Z","depth":0,"parameterNumber":3,"parameterNumberName":"V-component_of_WINDS"},"data":[0,0,0,0,0,0,0,0,0,0,0,0,0,0,0,0,0,0,0,0,0,0,0,0,0,0,0,0,0,0,0,0,0,0,0,0,0,0,0,0,0,0,0,0,0,0,0,0,0,0,0,0,0,0,0,0,0,0,3.0159,3.0159,0,3.0142,3.0142,3.0142,3.0079,3.0077,3.0076,3.0075,3.0058,3.0059,3.006,0,0,0,0,0,0,0,0,0,0,0,0,0,3.0134,3.0134,3.0159,3.0159,3.0158,3.0143,3.0142,3.0142,3.0079,3.0077,3.0076,3.0074,3.0058,3.0059,3.006,0,0,0,0,0,0,0,0,0,0,0,0,0,3.0134,3.0135,3.0159,3.0125,3.0122,3.0143,3.0142,3.0142,3.0079,3.0077,3.0075,3.0073,3.0057,3.0059,3.006,3.0112,0,0,3.0064,3.0065,0,0,0,0,0,0,0,0,3.0134,3.0135,3.013,3.0127,3.0124,3.011,3.0127,3.0132,3.008,3.0096,3.0074,3.0072,3.0077,3.0077,3.0078,3.0111,3.011,3.0064,3.0065,3.0066,3.0066,0,0,0,0,0,0,0,3.0134,3.0135,3.0152,3.013,3.0126,3.011,3.0108,3.0128,3.0099,3.0094,3.0089,3.0088,3.0075,3.0077,3.0078,3.011,3.0064,3.0065,3.0066,3.0067,3.0183,3.0185,0,0,0,0,0,0,3.0139,3.0136,3.0153,3.0152,3.0124,3.0112,3.011,3.0117,3.0098,3.0093,3.009,3.0085,3.0076,3.0076,3.0077,3.0135,3.0066,3.0067,3.0068,3.018,3.0183,3.0185,0,0,0,0,0,0,3.0139,3.0141,3.0153,3.0142,3.0143,3.0115,3.0124,3.0118,3.012,3.0095,3.009,3.0098,3.0074,3.0075,3.0103,3.0133,3.0067,3.0069,3.0178,3.0181,3.0184,3.0253,0,0,0,0,0,0,3.0138,3.0141,3.0161,3.0143,3.0144,3.0181,3.0126,3.0119,3.0123,3.0116,3.0101,3.0097,3.0073,3.0101,3.0105,3.0134,3.007,3.0175,3.0179,3.0183,3.0248,3.0258,3.0267,0,0,0,0,0,3.0137,3.0182,3.0163,3.0165,3.0168,3.0183,3.0183,3.0154,3.0125,3.0145,3.0129,3.0097,3.013,3.0105,3.0108,3.0138,3.0173,3.0178,3.0183,3.0243,3.0256,3.0267,0,0,0,0,0,0,3.0204,3.0179,3.0157,3.0197,3.0193,3.0172,3.0196,3.0169,3.0172,3.0166,3.013,3.0128,3.0161,3.0152,3.0125,3.0187,3.0146,3.0152,3.0191,3.0203,3.0212,3.0213,3.0071,0,0,0,0,0,3.0224,3.0238,3.0215,3.0252,3.0251,3.0224,3.0229,3.0207,3.0201,3.0199,3.0185,3.018,3.0189,3.0195,3.0202,3.0246,3.0241,3.0269,3.0278,3.0286,3.0292,3.0312,3.0324,3.0202,3.0202,3.0202,0,0,3.0264,3.0252,3.0263,3.0265,3.0259,3.0274,3.0223,3.0241,3.0252,3.0202,3.0227,3.0217,3.0209,3.0245,3.026,3.0239,3.0324,3.0293,3.0299,3.03,3.0319,3.033,3.0341,3.0206,3.0205,3.0204,0,0,3.0345,3.0338,3.0367,3.0361,3.0352,3.0334,3.0341,3.0324,3.0315,3.034,3.0302,3.0314,3.0331,3.0326,3.0326,3.0403,3.0373,3.0406,3.0456,3.0477,3.0487,3.0495,3.0521,3.0531,3.0412,3.0412,3.0412,0,3.0396,3.0417,3.0386,3.0406,3.0407,3.0362,3.0391,3.0387,3.0381,3.0383,3.0359,3.0378,3.0369,3.0403,3.0421,3.0423,3.0429,3.0407,3.0488,3.0496,3.0503,3.0527,3.0538,3.0416,3.0415,3.0415,3.0414,0,3.048,3.0495,3.052,3.0514,3.0518,3.0543,3.0514,3.0522,3.05,3.0484,3.0509,3.0497,3.0499,3.0506,3.0485,3.0536,3.0523,3.0494,3.0452,3.0519,3.0541,3.0551,3.0421,3.042,3.0419,3.0418,0,0,3.0603,3.0578,3.0588,3.0584,3.057,3.0581,3.0603,3.0605,3.0612,3.0609,3.0626,3.064,3.0613,3.0613,3.059,3.0608,3.0668,3.0577,3.0576,3.0593,3.0722,3.0743,3.0754,3.0649,3.0651,3.0652,3.0722,0,3.0679,3.0715,3.0686,3.0727,3.074,3.0696,3.0715,3.0708,3.0693,3.0701,3.0685,3.0695,3.0659,3.0658,3.0675,3.0658,3.0693,3.0652,3.0663,3.0664,3.0666,3.0766,3.0789,3.0856,3.0731,3.0732,3.0733,0,3.0772,3.0772,3.0814,3.0796,3.08,3.0818,3.0816,3.0825,3.0816,3.0803,3.0803,3.0774,3.0794,3.0753,3.0778,3.0751,3.0754,3.0746,3.0748,3.0747,3.0702,3.0767,3.0876,3.0886,3.0747,3.0746,3.0745,0,3.0856,3.0867,3.0893,3.0891,3.087,3.0883,3.0875,3.0864,3.0867,3.0866,3.0867,3.0868,3.0869,3.0871,3.0843,3.0817,3.0872,3.0829,3.0861,3.0862,3.0874,3.0874,3.0984,3.0878,3.0878,3.0877,3.0877,0,3.0943,3.097,3.093,3.0946,3.0974,3.0941,3.097,3.0957,3.0947,3.0959,3.0922,3.0935,3.0898,3.0906,3.0885,3.0908,3.0909,3.0899,3.0893,3.0902,3.0903,3.0903,3.0897,3.088,3.0879,3.0879,3.0879,0,3.1041,3.1016,3.1041,3.1019,3.1014,3.1036,3.1017,3.103,3.1012,3.1028,3.103,3.1002,3.1009,3.0982,3.0985,3.0971,3.1005,3.0991,3.1008,3.1003,3.1036,3.1033,3.115,3.1163,3.1049,3.105,3.1051,0,3.1098,3.1118,3.1098,3.1103,3.1097,3.1106,3.1108,3.1075,3.1079,3.1069,3.1083,3.1087,3.1089,3.1103,3.1082,3.1084,3.107,3.111,3.107,3.1077,3.1069,3.1068,3.1069,3.1119,3.112,3.1121,3.1122,0,3.1202,3.1187,3.1192,3.1192,3.1195,3.1193,3.1189,3.1195,3.116,3.1166,3.1172,3.1174,3.1176,3.118,3.1177,3.1168,3.1139,3.1135,3.1142,3.1151,3.116,3.1154,3.103,3.1133,3.1132,3.1131,3.113,3.113,3.128,3.1295,3.1282,3.1288,3.1281,3.1277,3.1288,3.1271,3.1276,3.1275,3.1256,3.1266,3.1254,3.1247,3.1241,3.1248,3.1229,3.124,3.1243,3.1246,3.1251,3.1159,3.1248,3.1248,3.1247,3.1247,3.1247,0,3.138,3.137,3.1375,3.137,3.1374,3.1346,3.1339,3.1344,3.1354,3.1345,3.1347,3.1354,3.1357,3.1337,3.1337,3.1347,3.1333,3.1348,3.1347,3.1345,3.1269,3.1262,3.1359,3.1359,3.1359,3.1359,3.1359,3.1359,3.1433,3.1456,3.144,3.1458,3.1447,3.1456,3.1455,3.1451,3.1444,3.1453,3.1455,3.1442,3.1428,3.1427,3.1429,3.1422,3.1424,3.1443,3.1432,3.1361,3.135,3.134,3.1333,3.1444,3.1444,3.1507,3.1508,3.1508]}]]